EHI
2 1 1 1 1 0 0 0 0 0 0 0 0 0 0 0 0 0 0 1 3 2 1 4 8 9 10 12 12 12 12 12 14 17 18 17 14 9 7 7 6 3 1 0 1 2 4 4 3
1 2 2 2 0 0 0 0 0 0 0 0 0 0 0 0 0 0 0 0 1 1 1 3 6 7 8 10 10 10 10 9 10 13 15 14 12 10 8 7 6 3 2 1 2 3 4 5 5
2 3 4 2 1 0 0 0 0 0 0 0 0 0 0 0 0 1 1 0 0 0 0 2 4 4 4 6 7 8 6 4 4 8 10 9 8 9 8 7 5 4 4 3 3 5 5 6 6
5 5 4 2 1 0 0 0 0 0 0 0 0 0 0 0 1 2 2 1 0 0 0 2 4 4 4 4 6 6 4 3 4 6 6 6 6 7 7 7 5 5 5 4 4 4 4 4 5
6 6 4 1 0 0 0 0 0 0 0 0 0 0 0 0 2 4 3 1 0 0 0 2 6 8 7 6 6 5 4 5 6 6 5 4 6 7 7 6 5 4 4 4 4 3 2 2 3
5 3 1 0 0 0 0 0 0 0 0 0 0 0 0 1 3 5 3 1 1 1 1 2 6 8 8 7 6 5 5 5 6 6 6 6 7 8 7 6 3 2 3 3 4 3 2 2 3
6 3 0 0 0 0 0 0 0 0 0 0 0 0 0 1 3 4 2 0 1 1 1 1 2 4 5 5 4 5 5 5 5 6 8 8 8 7 7 5 3 1 1 2 3 3 3 3 4
8 4 1 0 0 0 0 0 0 0 0 0 0 0 0 1 3 3 1 0 0 0 0 0 0 0 1 2 3 4 5 5 6 8 9 9 7 6 5 5 3 1 0 1 3 3 4 5 5
7 4 1 0 0 0 1 2 1 0 0 1 1 1 1 2 4 4 3 1 1 0 0 0 0 0 0 0 1 2 4 5 5 7 7 6 4 3 3 3 3 2 1 2 4 5 5 5 5
5 3 1 0 0 0 1 2 2 1 0 2 4 4 3 3 3 4 4 2 1 0 0 0 0 0 0 0 0 1 1 2 2 2 3 2 1 1 1 1 2 2 2 2 4 5 4 3 3
2 2 1 0 0 0 1 1 2 2 1 3 7 8 5 3 1 2 2 2 1 1 1 1 1 2 1 1 0 0 0 0 0 0 0 0 0 0 0 0 1 1 1 1 2 2 2 1 1
0 0 0 0 0 0 0 1 2 3 4 7 10 9 5 3 1 1 1 2 3 3 3 3 3 3 3 2 1 0 0 0 0 0 0 0 0 0 0 0 0 0 0 0 0 0 0 0 0
0 0 0 0 0 0 0 1 3 5 8 11 12 8 5 3 2 2 3 4 4 5 5 5 4 3 2 2 1 0 0 0 0 0 0 0 0 0 0 0 0 0 0 0 0 0 0 0 0
0 0 0 0 0 0 0 1 4 8 12 13 12 9 4 3 5 7 7 6 5 5 6 6 4 2 1 1 1 1 0 0 0 0 0 0 0 0 0 0 0 0 0 0 0 0 0 0 0
0 0 0 0 0 0 0 1 4 9 12 12 12 10 7 6 9 12 10 8 8 8 7 7 5 3 1 0 0 1 1 0 0 0 0 0 0 1 1 1 0 0 0 0 0 0 0 0 0
0 0 0 0 0 0 0 1 4 9 12 13 13 13 11 11 13 13 11 10 12 12 10 9 7 5 3 2 2 2 2 1 0 0 0 0 0 1 2 2 1 0 0 0 0 0 0 0 0
0 0 0 0 0 0 0 1 3 8 13 16 16 17 16 16 16 13 12 13 16 16 14 11 9 8 6 5 4 3 3 2 1 0 1 1 0 1 2 3 2 1 0 0 0 0 0 0 0
0 0 0 0 0 1 1 1 3 8 14 19 20 20 19 19 19 16 14 17 19 19 17 14 12 11 9 8 7 6 4 3 2 2 2 2 1 1 3 3 2 1 0 0 0 0 0 0 0
0 0 0 1 0 1 2 2 3 8 14 20 22 22 20 20 20 18 17 20 22 20 19 17 15 13 12 11 9 8 7 5 4 3 3 3 2 2 2 3 2 1 0 0 0 0 0 0 0
0 0 0 0 0 1 1 1 2 7 14 18 20 21 20 20 20 19 19 22 24 22 19 18 16 15 14 13 11 10 9 8 6 5 4 4 3 1 1 3 2 1 0 0 0 0 0 0 0
0 0 0 0 0 0 0 0 1 6 13 16 18 20 23 25 25 23 23 25 26 23 20 18 17 15 13 13 13 12 11 10 8 6 5 4 3 1 1 3 3 1 0 0 0 0 0 0 0
0 0 0 0 0 0 0 0 1 6 12 15 18 21 26 30 31 29 28 29 29 26 22 19 18 16 13 13 14 14 12 10 8 6 5 4 3 2 2 4 4 2 1 1 1 1 1 0 0
0 0 0 0 0 0 0 0 1 5 10 13 17 20 25 30 33 32 31 31 31 29 26 23 22 18 13 13 14 13 11 8 6 5 4 3 3 3 4 6 6 5 4 4 3 2 1 0 0
0 0 0 0 0 0 0 0 1 3 7 11 15 19 23 27 30 30 30 31 31 32 31 30 28 22 16 13 13 11 9 7 5 4 3 2 2 3 5 7 8 8 8 7 6 5 3 1 0
0 0 0 0 0 0 0 0 0 1 4 8 13 17 20 23 25 27 30 33 35 35 36 36 34 27 20 16 13 11 10 8 6 5 3 2 3 4 6 7 7 9 10 8 6 5 4 3 1
0 0 0 0 0 0 0 0 0 1 4 7 10 13 14 17 21 26 32 37 40 39 39 39 38 32 25 20 16 14 13 11 8 6 4 3 3 5 6 6 6 8 8 7 5 3 3 3 2
0 0 0 0 0 0 0 0 1 3 5 7 8 9 10 13 18 24 31 38 41 41 40 39 37 33 28 24 20 18 17 15 11 6 3 2 2 4 6 6 6 6 6 5 3 1 1 1 2
0 0 0 0 0 0 0 1 1 3 6 7 7 7 10 13 17 21 28 35 39 40 40 40 37 32 29 27 25 22 22 19 13 8 5 3 2 3 5 7 8 7 6 5 2 1 1 1 2
0 0 0 0 0 0 0 0 1 3 5 7 7 7 11 15 16 19 24 31 37 39 41 43 40 34 32 31 30 27 24 21 16 11 8 6 4 3 4 7 9 8 7 6 4 3 3 3 3
0 0 0 0 0 0 0 0 1 2 4 7 9 10 12 15 16 17 22 30 36 39 41 44 41 37 36 36 33 30 24 20 16 13 11 9 6 4 5 7 9 9 8 7 7 6 5 5 4
Wind_Speed
7 5 3 1 1 3 3 2 4 5 5 6 10 10 9 7 5 5 2 5 7 6 4 7 10 11 12 12 12 12 12 13 13 13 14 14 14 14 15 15 15 15 15 14 13 13 13 13 12
4 4 2 1 3 3 2 2 6 6 9 9 10 10 9 7 6 7 4 5 8 7 5 7 10 11 11 11 11 12 12 12 13 13 13 14 13 13 14 14 14 14 14 14 13 12 12 12 11
4 3 1 2 1 3 3 4 7 8 9 8 6 7 6 5 6 5 5 8 8 6 5 7 10 11 11 11 11 11 12 12 12 13 13 13 13 13 14 14 14 13 13 13 13 12 11 11 10
1 1 1 2 2 2 5 6 9 10 8 8 8 7 5 4 4 7 9 8 9 6 4 6 10 10 11 11 10 11 11 11 11 12 12 12 13 13 13 13 13 13 13 12 12 11 11 10 9
1 2 3 2 2 3 4 8 8 9 6 9 10 8 5 4 10 12 10 9 8 6 4 5 8 10 11 11 10 11 11 11 11 11 11 12 12 12 12 12 12 12 12 12 11 10 10 9 8
2 2 3 2 3 3 4 7 10 13 12 11 10 8 3 5 10 10 9 8 7 6 4 4 8 11 11 11 11 11 11 11 11 11 11 11 11 11 11 11 11 11 11 11 10 9 9 8 7
2 2 1 2 3 3 4 5 8 11 10 8 8 7 4 5 7 9 9 7 6 6 4 3 3 6 9 10 10 11 11 11 11 11 11 10 10 10 10 10 10 10 10 10 9 8 8 7 6
3 2 1 1 3 3 4 5 8 10 8 9 7 7 6 6 8 9 8 6 6 5 4 3 2 2 3 5 9 10 10 10 10 10 10 9 9 9 9 8 9 9 9 9 8 8 7 6 6
2 3 1 3 4 4 6 8 7 8 10 6 6 7 9 10 11 9 7 5 4 5 3 3 3 3 3 4 7 8 9 8 8 7 8 6 2 3 3 6 8 9 9 8 8 7 6 5 5
4 3 5 5 5 6 7 9 9 8 10 9 10 10 12 11 10 9 8 6 5 5 3 3 3 3 3 4 4 3 3 3 3 2 3 2 2 1 2 5 7 7 7 7 7 6 5 3 2
4 5 3 3 5 7 7 7 7 11 7 11 14 14 12 10 8 8 7 6 5 5 4 3 3 3 3 3 3 2 2 2 2 3 3 3 2 1 1 1 2 3 4 3 3 3 1 1 1
3 3 2 3 4 6 7 6 7 8 9 14 16 15 12 10 8 7 7 6 5 5 4 4 4 4 3 3 3 3 2 2 2 2 3 3 2 2 1 1 1 1 1 1 1 1 2 2 2
2 1 1 2 4 6 8 8 8 9 14 15 15 14 12 10 8 7 7 7 6 6 4 4 4 4 3 3 2 3 2 2 2 2 2 3 2 2 2 1 1 1 1 2 1 1 2 2 2
3 2 2 3 4 6 10 8 8 10 15 15 14 12 12 11 10 8 8 7 7 6 5 4 4 3 3 3 2 3 2 2 2 2 2 2 2 3 3 2 2 1 1 1 1 2 2 1 2
1 1 2 1 3 4 9 6 7 13 15 14 13 12 11 10 10 10 9 8 8 7 6 5 5 4 4 3 3 3 3 3 2 2 2 2 3 3 3 2 2 1 1 1 1 1 1 1 1
3 3 1 3 2 4 8 5 7 11 14 12 12 11 10 9 10 10 9 8 8 8 7 6 6 5 4 3 3 2 2 3 2 2 2 2 2 3 3 2 1 1 1 1 2 1 1 1 1
4 1 3 4 3 4 6 5 6 8 12 11 11 10 10 9 8 9 10 9 8 8 7 6 5 5 4 3 2 3 2 3 2 2 2 2 2 2 3 2 1 2 1 1 1 1 1 1 1
3 2 3 3 2 3 4 4 7 8 10 11 11 10 10 10 10 10 10 10 9 8 7 6 6 5 4 3 2 2 2 1 1 1 2 2 2 2 3 2 1 2 2 1 1 1 1 1 1
3 3 4 5 3 3 4 6 9 9 9 10 9 9 10 10 9 9 10 10 9 7 7 6 6 5 4 2 2 2 1 1 1 1 2 2 2 3 3 2 2 2 2 2 2 2 1 0 1
2 3 3 3 1 2 3 4 7 10 12 13 13 12 12 9 8 9 9 9 9 8 7 6 6 5 4 3 2 2 2 2 2 1 1 2 2 3 3 3 2 2 2 1 1 1 1 0 1
3 3 3 1 2 4 4 1 2 4 5 7 9 11 12 13 12 12 11 10 9 9 9 8 7 6 5 4 2 2 1 1 1 0 1 2 2 2 2 3 3 2 2 2 1 1 2 1 1
4 4 2 0 2 2 2 1 5 5 4 7 8 9 11 11 11 11 11 11 11 10 9 8 7 6 6 5 4 4 3 2 3 2 2 1 1 2 2 2 2 2 2 2 2 2 2 2 1
5 3 0 0 1 2 3 2 6 1 4 7 9 11 12 12 13 13 12 12 11 10 9 8 7 6 6 5 5 4 3 3 2 1 1 1 1 1 2 3 2 2 2 2 2 1 2 2 2
2 4 5 5 6 2 3 2 5 4 8 8 8 9 10 11 12 11 10 9 8 9 8 8 7 6 6 6 5 5 5 4 3 2 2 1 1 1 1 2 2 2 2 2 2 2 2 2 2
3 6 5 6 5 4 2 1 7 7 7 9 10 9 9 10 10 11 10 10 9 9 9 8 8 6 6 6 6 6 6 5 5 4 3 3 2 1 2 2 2 2 2 2 2 2 2 2 2
2 8 7 4 3 5 3 2 6 5 3 4 7 8 8 9 10 11 12 11 10 10 9 9 8 7 7 6 6 5 5 4 4 4 4 4 3 3 3 3 3 3 2 2 2 2 2 1 2
2 2 7 7 2 0 4 3 6 3 3 3 5 8 9 10 10 10 10 10 10 10 10 10 9 8 7 7 6 5 5 4 4 4 3 3 3 3 3 3 3 3 3 3 2 2 1 1 2
5 6 6 5 3 1 4 3 4 3 3 3 5 8 9 8 8 8 8 9 9 9 9 9 9 8 7 6 6 5 5 4 4 4 4 3 3 3 3 3 3 2 2 2 2 2 1 1 2
1 3 5 4 5 6 2 7 7 8 7 6 6 7 8 8 8 8 7 7 7 7 7 7 7 7 6 6 5 4 4 4 4 4 4 4 3 3 3 3 3 2 2 2 2 2 2 2 2
5 6 7 5 3 4 4 8 5 4 4 6 6 6 7 8 8 8 7 7 7 7 7 7 7 7 7 6 6 5 4 4 4 4 3 3 3 3 3 3 3 2 2 2 3 3 3 2 2
Wind_Direction
177 179 178 213 35 45 52 69 100 89 67 65 74 82 78 62 80 120 174 134 124 124 125 121 120 117 115 113 112 111 110 110 110 113 115 116 118 121 125 127 130 130 129 129 131 127 128 127 126
166 181 198 23 66 66 41 99 93 95 121 112 84 82 77 70 83 110 118 130 127 127 126 124 121 118 116 115 114 112 112 112 113 115 118 119 118 121 127 127 127 129 130 129 127 127 128 127 128
180 204 155 58 74 127 114 114 111 105 112 103 87 65 68 91 106 117 139 135 119 118 121 126 122 121 121 119 117 116 115 116 116 117 121 120 121 122 126 126 127 129 131 132 131 131 134 133 133
170 123 46 67 91 136 126 126 122 109 88 78 92 70 57 77 103 124 134 127 117 117 125 131 129 130 128 126 124 123 121 120 119 119 121 122 124 125 127 130 130 131 134 133 135 136 136 138 139
79 70 40 32 81 91 112 123 116 105 92 90 92 91 73 73 108 124 129 124 122 123 130 134 131 137 136 132 129 126 122 122 122 121 119 121 123 125 128 131 132 134 136 137 139 140 141 145 146
37 55 57 49 87 101 111 110 105 102 110 109 103 102 89 114 118 131 131 125 127 130 128 123 127 136 136 134 133 130 126 126 126 126 125 126 127 130 132 136 138 139 141 141 144 148 150 152 152
117 85 124 144 119 116 122 109 109 118 123 124 123 103 115 125 129 130 128 127 127 124 119 115 119 125 131 134 137 137 136 134 133 131 130 132 135 139 142 145 146 146 145 149 151 157 159 158 156
166 101 25 139 130 131 134 109 120 121 116 125 122 124 147 159 135 121 119 121 122 117 119 120 113 115 127 135 138 140 142 141 139 136 137 138 141 144 151 155 154 154 155 157 160 167 169 165 162
140 90 179 189 148 153 136 113 109 96 108 106 95 119 139 139 127 118 114 107 117 125 132 137 139 129 129 140 142 143 144 143 138 135 140 137 127 133 150 162 165 163 166 167 173 176 177 180 180
138 153 212 193 155 153 145 136 130 108 101 98 101 112 125 124 126 126 129 132 134 139 145 141 137 133 137 139 127 129 136 136 131 131 131 129 126 141 156 168 169 171 175 178 181 185 186 194 189
156 193 207 158 151 150 139 132 123 124 128 144 139 138 136 130 131 132 134 136 143 145 138 128 130 126 123 113 123 120 126 131 133 133 137 134 128 127 112 124 152 166 180 181 181 179 190 201 189
161 223 194 157 141 140 141 126 117 133 149 148 143 143 144 142 147 144 141 138 131 128 125 123 119 116 114 114 121 128 132 133 134 145 143 130 126 133 137 135 143 149 166 167 174 175 187 196 192
169 210 192 165 134 130 119 117 117 124 134 140 141 141 145 148 148 144 141 137 132 132 131 127 120 117 113 105 121 129 132 135 144 138 139 142 137 149 150 155 145 152 159 167 167 176 183 184 192
230 200 226 163 147 134 124 122 111 138 141 143 145 148 153 154 149 144 143 145 144 145 145 138 125 121 113 112 119 124 132 138 135 130 145 146 145 152 148 145 145 147 161 160 161 173 172 177 172
353 63 344 170 146 143 116 109 136 149 148 148 152 154 157 158 153 153 158 154 152 150 150 148 141 130 123 118 120 120 129 124 126 134 137 134 134 143 141 141 144 152 154 130 128 129 123 140 153
26 51 332 269 169 154 114 151 168 154 150 153 158 159 159 162 161 160 158 155 152 149 148 154 148 138 133 126 124 122 126 132 139 139 132 133 133 135 130 132 148 160 140 130 133 135 129 152 165
16 342 261 274 210 145 117 160 177 164 152 153 157 159 158 159 163 164 165 160 156 154 150 149 143 144 144 130 119 120 125 133 140 135 125 145 147 136 132 138 151 134 123 128 163 139 148 165 176
254 273 271 252 225 134 133 164 170 176 157 159 161 160 159 166 172 169 164 159 156 153 150 146 143 149 144 126 101 91 99 114 123 144 160 161 154 146 134 137 141 126 123 128 127 151 154 172 182
215 248 264 259 229 149 169 168 177 179 165 163 166 168 169 174 175 164 162 158 154 153 151 149 151 157 145 132 128 121 141 160 159 186 178 167 159 150 142 147 143 140 149 165 154 148 142 167 132
232 245 275 296 310 128 161 186 186 181 181 176 171 175 175 169 167 167 165 163 163 165 162 157 161 163 160 161 160 159 162 174 177 182 174 175 159 158 160 156 163 160 150 140 127 131 133 210 150
278 227 250 237 21 43 93 359 205 205 183 174 176 176 176 175 175 174 175 172 169 172 172 170 169 168 170 166 144 119 79 56 67 151 196 203 176 166 160 163 167 161 159 173 184 159 152 198 262
262 237 225 74 70 310 112 218 263 205 183 185 186 179 179 177 175 177 175 175 178 179 176 170 171 171 173 164 158 163 165 181 205 200 199 214 185 168 165 168 168 159 154 174 196 157 163 163 228
226 217 185 257 119 43 17 119 280 196 192 205 195 187 182 178 177 179 179 179 178 175 174 173 170 173 173 174 174 171 182 196 202 178 181 209 215 188 180 175 167 167 171 185 184 164 164 177 193
203 44 28 44 61 25 285 152 269 220 205 203 199 190 182 178 180 178 176 171 172 173 173 171 171 179 179 177 178 179 185 188 183 189 190 210 220 242 225 176 169 176 182 189 193 194 187 195 198
76 80 30 6 15 263 278 149 245 236 207 187 187 188 184 175 175 173 171 171 174 175 176 174 173 183 184 181 185 187 186 182 185 189 193 194 205 222 230 205 187 192 196 193 185 187 205 207 207
207 133 150 184 222 280 328 247 258 263 214 173 171 166 172 174 173 176 177 173 172 173 174 174 179 183 183 183 191 191 185 181 187 188 185 190 198 211 213 199 201 200 196 196 183 184 205 207 223
151 154 165 140 163 319 290 298 317 14 79 116 147 158 171 174 173 175 173 172 174 173 175 177 179 185 189 190 189 190 188 186 190 192 188 191 203 206 202 198 197 200 196 190 177 188 204 203 226
143 148 94 108 138 248 295 273 233 228 180 152 161 168 173 169 166 171 173 175 178 177 175 176 177 184 187 189 193 194 194 195 193 189 196 198 205 203 191 197 195 197 198 189 184 199 210 215 242
120 85 101 113 143 154 224 266 230 203 190 172 175 165 164 168 172 177 179 178 174 167 166 172 178 179 182 188 193 191 189 194 192 197 205 204 205 194 193 191 191 188 190 193 189 209 214 226 253
161 156 140 142 209 168 169 258 262 202 192 164 163 158 164 174 178 175 172 168 169 175 176 176 178 183 187 184 183 191 193 191 195 204 208 201 203 204 197 190 184 191 195 196 195 210 212 207 231